Zafarobod

Tajikistan     40˚10′38″N   68˚50′47″E
temp.,
°C
wind,
m/s
gust,
m/s
humid.,
%
clouds,
%
prec.,
mm/h
press.,
hPa
HPBL,
m
1 december, tue
tue123:00+3˚ene2350100 0.0 102864
02:00+2˚ene3351100 0.0 102765
05:00+4˚e3749100 0.1 1027223
08:00+5˚ese71145100 0.1 1026270
11:00+9˚ese693883 0.3 1026347
14:00+10˚ese8113496 0.0 1024435
17:00+9˚ese7124196 0.0 1025345
20:00+8˚ese12195196 0.0 1027396
2 december, wed
wed223:00+7˚ese13216466 0.0 1027408
02:00+7˚ese10186183 0.0 1026454
05:00+7˚ese8136592 0.0 1027342
08:00+6˚ese61070100 0.0 1027258
11:00+10˚se485484 0.0 1026571
14:00+13˚ese6948100 0.0 1025669
17:00+10˚ese3553100 0.0 102597
20:00+9˚sse2257100 0.1 102657
3 december, thu
thu323:00+7˚nne116393 0.1 102522
02:00+6˚wsw226174 0.0 102531
05:00+5˚ssw236187 0.0 102541
08:00+6˚se2565100 0.0 1026139
11:00+9˚ene5860100 0.0 1025503
14:00+10˚ne3556100 0.0 1025614
17:00+6˚nnw3375100 0.1 1024185
20:00+6˚sse1283100 1.1 1025179
4 december, fri
fri423:00+5˚wsw3385100 4.1 1024237
02:00+5˚nw3465100 1.4 1024345
05:00+3˚wnw3371100 1.9 1024321
08:00+2˚wnw2264100 0.8 1026382
11:00+3˚nw2253100 0.8 1027609
14:00+5˚wnw124991 0.0 1028910
17:00+4˚sw126086 0.0 1029150
20:00+3˚wnw117494 0.0 103130
5 december, sat
sat523:00+2˚n125994 0.0 103157
02:00+1˚ne125693 0.0 103142
05:00+1˚ene225988 0.0 103028
08:00ne226144 0.0 103029
11:00+4˚ne115664 0.0 1028361
14:00+6˚ne225675 0.0 1026646
17:00+5˚nne236151 0.0 102663
20:00+3˚n226312 0.0 102744